Regional Weather Roundup
Issued by NWS Cleveland, OH

Home | Current Version | Previous Version | Graphics & Text | Print | Product List | Glossary On
Versions: 1 2 3 4 5 6 7 8 9 10 11 12 13 14 15 16 17 18 19 20 21 22 23 24 25 26 27 28 29 30 31 32 33 34 35 36 37 38 39 40 41 42 43 44 45 46 47 48 49 50
000
ASUS41 KCLE 220112
RWRCLE
OHIO REGIONAL WEATHER ROUNDUP
NATIONAL WEATHER SERVICE WILMINGTON, OH
900 PM EDT SAT APR 21 2018

NOTE: "FAIR" INDICATES FEW OR NO CLOUDS BELOW 12,000 FEET WITH NO
SIGNIFICANT WEATHER AND/OR OBSTRUCTIONS TO VISIBILITY.

OHZ001>008-015>018-024>027-034-035-043-044-220200-
   NORTHWEST OHIO

CITY           SKY/WX    TMP DP  RH WIND       PRES   REMARKS
DEFIANCE       CLOUDY    51  29  42 E8        30.38S
FINDLAY        CLOUDY    50  19  29 E8        30.37S
TOLEDO EXPRESS FAIR      48  16  27 E7        30.40R
TOLEDO EXEC    FAIR      47  23  38 E5        30.41S
LIMA           MOCLDY    49  27  42 NE9       30.36F
$$

OHZ009>014-019>023-028>033-038-089-220200-
   NORTHEAST OHIO

CITY           SKY/WX    TMP DP  RH WIND       PRES   REMARKS
CLE-HOPKINS    MOCLDY    41  31  67 N7        30.42F
CLE-LAKEFRONT  FAIR      40  32  73 NE6       30.40S
CUY CO. ARPT   MOCLDY    43  32  65 NE5       30.41S
LORAIN-ELYRIA  FAIR      41  23  48 NE13      30.40S
ASHTABULA      FAIR      42  26  53 CALM      30.40F
AKRON-CANTON   CLOUDY    49  25  39 N7        30.37S
WOOSTER        MOCLDY    47  22  37 N5        30.37F
MANSFIELD      MOCLDY    47  20  34 N7        30.36F
YOUNGSTOWN     MOCLDY    46  26  45 NE5       30.37F
$$

OHZ042-051>053-060>062-070>072-077>081-220200-
  SOUTHWEST OHIO

CITY           SKY/WX    TMP DP  RH WIND       PRES   REMARKS
CINC-COVINGTON CLOUDY    55  22  27 NE15      30.30S
CINC-LUNKEN    FAIR      53  29  39 NE6       30.32S
HAMILTON       FAIR      53  27  36 NE6       30.32F
DAYTON         CLOUDY    51  25  36 NE10      30.35S
WRIGHT-PAT AFB CLOUDY    51  24  34 NE10      30.34R
DAYTON GENERAL FAIR      53  22  29 NE9       30.32S
WILMINGTON     FAIR      49  33  54 NE8       30.32S
$$

OHZ036-037-039>041-045>050-054>059-063>069-073>076-082>088-220200-
  CENTRAL AND SOUTHEAST OHIO

CITY           SKY/WX    TMP DP  RH WIND       PRES   REMARKS
COLUMBUS       CLOUDY    53  22  29 NE6       30.34S
OSU AIRPORT    FAIR      50  24  36 N9        30.35R
BOLTON FIELD   FAIR      49  28  42 N9        30.35S
RICKENBACK AFB FAIR      48  26  40 NE9       30.33S
NEWARK         CLOUDY    53  21  28 VRB3      30.34S
MARION         CLOUDY    46  23  40 NE7       30.38R
LANCASTER      FAIR      50  31  48 N5        30.34F
ZANESVILLE     NOT AVBL
NEW PHILLY     CLOUDY    53  20  27 CALM      30.36F
$$



USA.gov is the U.S. government's official web portal to all federal, state and local government web resources and services.